Flag for U.S.A. Weather past 2 weeks in Rancho Cucamonga, California, U.S.A.

Now
58 °F

Overcast.


Feels Like: 58 °F
Forecast: 55 / 76 °F
Wind: No wind

Location: Ontario International Airport

Current Time: May 25, 2015 at 9:14:22 AM

Latest Report: May 25, 2015 at 8:53 AM


Visibility: 4 mi

Pressure: 29.98 "Hg

Humidity: 81%

Dew point: 52 °F

Location of Rancho CucamongaLocation

Historic Weather in Rancho Cucamonga — Graph

°F

Rancho Cucamonga temperature yesterday

Maximum temperature yesterday: 70 °F (at 3:53 PM)
Minimum temperature yesterday: 57 °F (at 11:53 PM)
Average temperature yesterday: 62 °F

Past Weeks' High & Low Weather Summary

 TemperatureHumidityPressure
High85 °F (May 11, 1:53 PM)93% (May 12, 5:53 AM)30.09 "Hg (May 12, 5:53 AM)
Low52 °F (May 14, 3:53 PM)22% (May 11, 2:53 PM)29.76 "Hg (May 11, 4:53 PM)
Average61 °F66%29.94 "Hg
* Reported May 10 7:53 AM — May 25 7:53 AM, Rancho Cucamonga, Weather by CustomWeather, © 2015

Note: Actual official high and low records may vary slightly from our data, if they occured in-between our weather recording intervals... More about our weather records

Advertising

Rancho Cucamonga weather history for previous 24 hours

 ConditionsComfort  
Time TempWeatherWind HumidityBarometerVisibility
7:53 AM
Mon, May 25
57 °FOvercast.No wind83%29.97 "Hg4 mi
6:53 AM56 °FFog.3 mph87%29.96 "Hg4 mi
5:53 AM56 °FFog.No wind87%29.93 "Hg5 mi
4:53 AM54 °FFog.No wind93%29.92 "Hg5 mi
3:53 AM55 °FFog.3 mph90%29.93 "Hg6 mi
2:53 AM55 °FFog.No wind90%29.93 "Hg6 mi
1:53 AM55 °FPassing clouds.No wind87%29.93 "Hg9 mi
12:53 AM55 °FPassing clouds.10 mph90%29.95 "Hg10 mi
11:53 PM
Sun, May 24
57 °FPassing clouds.9 mph81%29.94 "Hg10 mi
10:53 PM58 °FPassing clouds.6 mph78%29.95 "Hg10 mi
9:53 PM61 °FPassing clouds.10 mph72%29.95 "Hg10 mi
8:53 PM64 °FPassing clouds.8 mph63%29.93 "Hg10 mi
7:53 PM65 °FPassing clouds.5 mph61%29.92 "Hg10 mi
6:53 PM66 °FPassing clouds.6 mph59%29.92 "Hg10 mi
5:53 PM67 °FScattered clouds.9 mph57%29.92 "Hg10 mi
4:53 PM67 °FPartly sunny.13 mph57%29.93 "Hg10 mi
3:53 PM70 °FPartly sunny.13 mph49%29.94 "Hg10 mi
2:53 PM68 °FOvercast.10 mph53%29.95 "Hg10 mi
1:53 PM66 °FOvercast.12 mph59%29.96 "Hg10 mi
12:53 PM67 °FOvercast.10 mph57%29.97 "Hg10 mi
11:53 AM66 °FBroken clouds.8 mph59%29.99 "Hg10 mi
10:53 AM66 °FBroken clouds.12 mph59%30.00 "Hg10 mi
9:53 AM64 °FPartly sunny.10 mph63%30.00 "Hg9 mi
Weather by CustomWeather, © 2015

See weather overviewHow to use our weather pages